Weather in Verkhnezeysk

Russia / Amur Oblast     54°37′35″N   128°32′49″E
temp.,
°C
wind,
m/s
gust,
m/s
humid.,
%
clouds,
%
prec.,
mm/h
press.,
hPa
HPBL,
m
4 july, mon
mon400:00+18ene117372 0.0 100311
03:00+19e11715 0.0 100311
06:00+20e23679 0.0 1004142
09:00+25ese33532 0.0 1004684
12:00+29s33401 0.0 10031610
15:00+31ssw23320 0.0 10022040
18:00+26ssw234790 0.1 1002338
21:00+23e115889 0.1 100311
5 july, tue
tue500:00+21e116875 0.0 100411
03:00+19ene22848 0.8 100513
06:00+20ene26834 0.0 1005153
09:00+27se34520 0.0 1005578
12:00+31sse35380 0.0 10042192
15:00+32ssw5735100 0.0 10022607
18:00+28ese35516 0.0 1002470
21:00+24ese126841 0.1 100437
6 july, wed
wed600:00+20e118417 0.8 100411
03:00+19e229466 2.1 100525
06:00+20e369345 0.7 1006182
09:00+26se56634 1.1 1006837
12:00+30sse574725 0.4 10041830
15:00+29s364980 0.4 10031256
18:00+29se4852100 0.0 1002775
21:00+24sse276990 0.6 1003144
7 july, thu
thu700:00+20ese228984 0.8 100322
03:00+19e2696100 2.9 1003123
06:00+20e4109311 0.6 1002256
09:00+25se512762 2.0 9991162
12:00+28sse6115150 0.6 9961919
15:00+27s6135598 0.6 9931527
18:00+19ssw61299100 13.3 994674
21:00+17se2699100 15.2 997202
8 july, fri
fri800:00+16se25100100 0.1 998187
03:00+16e2510070 0.3 997140
06:00+17ese479693 0.2 998382
09:00+18ese599196 0.5 998617
12:00+25sse5757100 0.0 9971252
15:00+27sse7104987 0.1 9951669
18:00+18sw51296100 2.8 995436
21:00+18ese2797100 7.3 997276